TimePST,TemperatureF,Dew PointF,Humidity,Sea Level PressureIn,VisibilityMPH,Wind Direction,Wind SpeedMPH,Gust SpeedMPH,PrecipitationIn,Events,Conditions,WindDirDegrees,DateUTC
12:53 AM,54.0,50.0,86,29.54,6.0,SSE,15.0,29.9,N/A,,Overcast,160,2012-11-17 08:53:00
1:53 AM,54.0,51.1,90,29.51,6.0,South,12.7,25.3,0.00,Rain,Light Rain,170,2012-11-17 09:53:00
2:15 AM,53.6,53.6,100,29.51,2.5,SSE,15.0,27.6,0.01,Rain,Light Rain,160,2012-11-17 10:15:00
2:19 AM,53.6,53.6,100,29.50,5.0,Variable,6.9,27.6,0.01,Rain,Light Rain,0,2012-11-17 10:19:00
2:53 AM,53.1,52.0,96,29.49,7.0,SSE,13.8,28.8,0.01,,Overcast,160,2012-11-17 10:53:00
3:01 AM,53.6,51.8,94,29.49,5.0,South,8.1,28.8,0.00,Rain,Light Rain,180,2012-11-17 11:01:00
3:18 AM,53.6,51.8,94,29.48,6.0,South,12.7,27.6,0.01,,Overcast,180,2012-11-17 11:18:00
3:30 AM,53.6,51.8,94,29.47,6.0,SSE,12.7,27.6,0.01,Rain,Light Rain,160,2012-11-17 11:30:00
3:53 AM,53.1,51.1,93,29.46,7.0,South,9.2,25.3,0.01,,Overcast,170,2012-11-17 11:53:00
4:53 AM,54.0,51.1,90,29.42,7.0,SSE,9.2,26.5,0.00,,Overcast,160,2012-11-17 12:53:00
5:53 AM,53.1,51.1,93,29.40,7.0,SSE,11.5,34.5,0.01,,Overcast,160,2012-11-17 13:53:00
6:33 AM,53.6,51.8,94,29.39,1.8,SSE,11.5,26.5,0.01,Rain,Light Rain,160,2012-11-17 14:33:00
6:42 AM,51.8,51.8,100,29.39,1.2,South,9.2,23.0,0.04,Rain,Light Rain,170,2012-11-17 14:42:00
6:53 AM,48.9,48.9,100,29.42,0.8,SSW,12.7,25.3,0.18,Rain,Heavy Rain,210,2012-11-17 14:53:00
6:59 AM,48.2,46.4,93,29.42,1.0,SW,15.0,24.2,0.05,Rain,Light Rain,220,2012-11-17 14:59:00
7:02 AM,48.2,46.4,93,29.42,2.0,SSW,13.8,20.7,0.05,Rain,Light Rain,210,2012-11-17 15:02:00
7:09 AM,48.2,46.4,93,29.42,2.0,SSW,8.1,18.4,0.06,Rain,Rain,200,2012-11-17 15:09:00
7:11 AM,46.4,46.4,100,29.42,1.8,SSW,9.2,18.4,0.07,Rain,Rain,200,2012-11-17 15:11:00
7:33 AM,48.2,48.2,100,29.42,2.5,South,5.8,-,0.14,Rain,Rain,180,2012-11-17 15:33:00
7:42 AM,48.2,48.2,100,29.42,1.8,SSW,5.8,-,0.16,Rain,Light Rain,200,2012-11-17 15:42:00
7:53 AM,48.0,48.0,100,29.43,1.5,South,8.1,16.1,0.20,Rain,Rain,190,2012-11-17 15:53:00
8:17 AM,48.2,48.2,100,29.44,1.8,SSW,10.4,20.7,0.07,Rain,Rain,200,2012-11-17 16:17:00
8:34 AM,48.2,46.4,93,29.45,1.2,SSW,12.7,21.9,0.12,Rain,Rain,200,2012-11-17 16:34:00
8:53 AM,46.9,46.9,100,29.46,1.2,SSW,9.2,18.4,0.17,Rain,Rain,200,2012-11-17 16:53:00
9:16 AM,46.4,46.4,100,29.45,1.2,South,10.4,18.4,0.07,Rain,Rain,180,2012-11-17 17:16:00
9:26 AM,46.4,46.4,100,29.46,1.2,South,12.7,19.6,0.10,Rain,Rain,190,2012-11-17 17:26:00
9:36 AM,46.4,46.4,100,29.47,1.5,SSW,12.7,20.7,0.11,Rain,Light Rain,200,2012-11-17 17:36:00
9:46 AM,46.4,46.4,100,29.47,1.2,SSW,11.5,17.3,0.14,Rain,Rain,200,2012-11-17 17:46:00
9:53 AM,46.9,46.0,97,29.47,1.5,South,10.4,18.4,0.15,Rain,Light Rain,190,2012-11-17 17:53:00
10:05 AM,46.4,46.4,100,29.48,1.2,South,9.2,-,0.01,Rain,Light Rain,190,2012-11-17 18:05:00
10:13 AM,46.4,46.4,100,29.49,1.0,South,6.9,-,0.03,Rain,Rain,190,2012-11-17 18:13:00
10:53 AM,45.0,44.1,97,29.51,1.2,South,6.9,-,0.15,Rain,Light Rain,190,2012-11-17 18:53:00
11:09 AM,44.6,44.6,100,29.49,2.0,SE,10.4,-,0.01,Rain,Light Rain,130,2012-11-17 19:09:00
11:17 AM,44.6,44.6,100,29.48,3.0,SE,8.1,20.7,0.02,Rain,Light Rain,140,2012-11-17 19:17:00
11:31 AM,44.6,44.6,100,29.49,1.8,SSE,8.1,16.1,0.03,Rain,Light Rain,150,2012-11-17 19:31:00
11:53 AM,44.1,44.1,100,29.49,2.0,SE,9.2,16.1,0.07,Rain,Light Rain,130,2012-11-17 19:53:00
12:02 PM,44.6,44.6,100,29.49,3.0,SSE,8.1,21.9,0.00,Rain,Light Rain,150,2012-11-17 20:02:00
12:32 PM,44.6,42.8,93,29.49,5.0,SE,8.1,17.3,0.00,,Overcast,140,2012-11-17 20:32:00
12:53 PM,44.1,43.0,96,29.49,5.0,SE,8.1,-,0.00,Rain,Light Rain,140,2012-11-17 20:53:00
1:00 PM,44.6,42.8,93,29.50,2.5,SSE,6.9,-,0.01,Rain,Light Rain,150,2012-11-17 21:00:00
1:08 PM,44.6,42.8,93,29.50,1.2,SSE,8.1,-,0.03,Rain,Rain,160,2012-11-17 21:08:00
1:17 PM,44.6,42.8,93,29.51,1.8,Variable,6.9,-,0.04,Rain,Light Rain,0,2012-11-17 21:17:00
1:25 PM,44.6,44.6,100,29.50,2.0,SE,5.8,-,0.06,Rain,Light Rain,140,2012-11-17 21:25:00
1:40 PM,44.6,42.8,93,29.50,4.0,SSE,10.4,16.1,0.06,Rain,Light Rain,150,2012-11-17 21:40:00
1:53 PM,44.1,43.0,96,29.49,2.0,SSE,13.8,21.9,0.07,Rain,Light Rain,150,2012-11-17 21:53:00
1:56 PM,44.6,42.8,93,29.50,1.2,SSE,10.4,21.9,0.00,Rain,Rain,150,2012-11-17 21:56:00
2:12 PM,44.6,42.8,93,29.50,1.2,SE,8.1,18.4,0.03,Rain,Light Rain,130,2012-11-17 22:12:00
2:17 PM,44.6,42.8,93,29.50,2.0,SW,4.6,18.4,0.03,Rain,Light Rain,220,2012-11-17 22:17:00
2:20 PM,44.6,42.8,93,29.50,4.0,Calm,Calm,-,0.03,Rain,Light Rain,0,2012-11-17 22:20:00
2:41 PM,44.6,44.6,100,29.50,1.8,SE,8.1,17.3,0.04,Rain,Light Rain,140,2012-11-17 22:41:00
2:44 PM,44.6,44.6,100,29.50,2.0,SE,9.2,17.3,0.04,Rain,Light Rain,140,2012-11-17 22:44:00
2:53 PM,45.0,44.1,97,29.50,5.0,SE,8.1,16.1,0.04,,Mostly Cloudy,130,2012-11-17 22:53:00
3:33 PM,44.6,44.6,100,29.50,5.0,SE,6.9,-,0.00,,Mostly Cloudy,140,2012-11-17 23:33:00
3:53 PM,45.0,44.1,97,29.51,5.0,Variable,4.6,-,0.00,Rain,Light Rain,0,2012-11-17 23:53:00
4:07 PM,44.6,44.6,100,29.50,5.0,SE,6.9,19.6,0.00,Rain,Light Rain,140,2012-11-18 00:07:00
4:14 PM,44.6,42.8,93,29.50,5.0,SSE,9.2,19.6,0.00,,Overcast,150,2012-11-18 00:14:00
4:28 PM,44.6,44.6,100,29.50,4.0,SSE,10.4,-,0.00,,Mostly Cloudy,150,2012-11-18 00:28:00
4:53 PM,45.0,44.1,97,29.50,3.0,SE,12.7,18.4,0.00,Rain,Light Rain,140,2012-11-18 00:53:00
5:05 PM,44.6,44.6,100,29.49,2.5,SE,13.8,21.9,0.03,Rain,Light Rain,140,2012-11-18 01:05:00
5:11 PM,44.6,44.6,100,29.49,5.0,SE,13.8,20.7,0.03,Rain,Light Rain,140,2012-11-18 01:11:00
5:40 PM,44.6,44.6,100,29.49,4.0,SSE,11.5,25.3,0.03,Rain,Light Rain,150,2012-11-18 01:40:00
5:48 PM,44.6,44.6,100,29.48,1.8,SE,10.4,19.6,0.05,Rain,Heavy Rain,130,2012-11-18 01:48:00
5:53 PM,45.0,45.0,100,29.50,1.5,South,8.1,18.4,0.07,Rain,Rain,180,2012-11-18 01:53:00
6:00 PM,44.6,44.6,100,29.51,1.2,South,10.4,18.4,0.04,Rain,Heavy Rain,170,2012-11-18 02:00:00
6:14 PM,44.6,44.6,100,29.51,2.0,SSE,9.2,23.0,0.10,Rain,Light Rain,160,2012-11-18 02:14:00
6:22 PM,44.6,44.6,100,29.51,5.0,SSE,6.9,18.4,0.11,Rain,Light Rain,160,2012-11-18 02:22:00
6:31 PM,44.6,44.6,100,29.52,1.8,Variable,6.9,-,0.12,Rain,Rain,0,2012-11-18 02:31:00
6:41 PM,44.6,44.6,100,29.52,4.0,South,11.5,21.9,0.17,Rain,Light Rain,190,2012-11-18 02:41:00
6:53 PM,45.0,45.0,100,29.52,5.0,SSE,12.7,26.5,0.17,,Overcast,150,2012-11-18 02:53:00
6:59 PM,44.6,44.6,100,29.52,2.5,South,12.7,26.5,0.01,Rain,Light Rain,180,2012-11-18 02:59:00
7:05 PM,44.6,44.6,100,29.52,3.0,Variable,6.9,19.6,0.03,Rain,Light Rain,0,2012-11-18 03:05:00
7:12 PM,46.4,44.6,93,29.53,4.0,SSW,8.1,-,0.03,Rain,Light Rain,210,2012-11-18 03:12:00
7:21 PM,46.4,-9999,N/A,29.53,4.0,SW,10.4,16.1,0.03,Rain,Light Rain,220,2012-11-18 03:21:00
7:30 PM,46.4,-9999,N/A,29.53,6.0,SSW,8.1,16.1,0.03,,Haze,210,2012-11-18 03:30:00
7:53 PM,46.0,46.0,100,29.55,6.0,SSW,9.2,17.3,0.04,,Mostly Cloudy,210,2012-11-18 03:53:00
8:14 PM,46.4,46.4,100,29.56,2.5,SW,15.0,24.2,0.00,Rain,Light Rain,220,2012-11-18 04:14:00
8:17 PM,46.4,46.4,100,29.56,1.8,SW,16.1,24.2,0.02,Rain,Rain,220,2012-11-18 04:17:00
8:24 PM,44.6,44.6,100,29.56,3.0,SW,8.1,23.0,0.02,Rain,Light Rain,220,2012-11-18 04:24:00
8:32 PM,44.6,44.6,100,29.56,5.0,SSW,6.9,-,0.02,,Scattered Clouds,210,2012-11-18 04:32:00
8:53 PM,45.0,-9999,N/A,29.57,5.0,SSW,4.6,-,0.02,,Haze,210,2012-11-18 04:53:00
9:53 PM,43.0,-9999,N/A,29.57,5.0,South,3.5,-,N/A,,Haze,190,2012-11-18 05:53:00
10:53 PM,45.0,-9999,N/A,29.58,6.0,South,8.1,-,0.01,,Haze,190,2012-11-18 06:53:00
11:53 PM,45.0,-9999,N/A,29.60,6.0,SW,9.2,-,N/A,,Haze,230,2012-11-18 07:53:00